DW0307 Weather Reports


time (UTC)temp
C
wind
direction
speed
KPH
gust
KPH
rain 1hr
cm
rain 24hr
cm
rain mn
cm
humidity
%
barometer
mb
20260904194633 20 243 29.0 40.2 0.00 0.00 0.00 66 1014.7
20260904193052 20 250 29.0 37.0 0.00 0.00 0.00 66 1014.7
20260904191552 20 251 27.4 38.6 0.00 0.00 0.00 65 1014.7
20260904190059 20 242 29.0 41.8 0.00 0.00 0.00 65 1014.9
20260904184604 20 252 25.7 41.8 0.00 0.00 0.00 66 1015.1
20260904183050 20 262 32.2 43.5 0.00 0.00 0.00 65 1014.9
20260904181600 20 254 30.6 45.1 0.00 0.00 0.00 64 1014.8
20260904180054 20 232 29.0 37.0 0.00 0.00 0.00 65 1014.8
20260904174550 20 239 24.1 35.4 0.00 0.00 0.00 65 1014.9
20260904173109 20 258 24.1 32.2 0.00 0.00 0.00 65 1014.7
20260904171551 20 240 22.5 33.8 0.00 0.00 0.00 64 1014.8
20260904170054 21 225 27.4 41.8 0.00 0.00 0.00 63 1014.8
20260904164602 21 244 32.2 46.7 0.00 0.00 0.00 62 1014.8
20260904163057 21 227 33.8 49.9 0.00 0.00 0.00 62 1014.8
20260904161554 21 248 25.7 49.9 0.00 0.00 0.00 61 1014.9
20260904160103 21 240 30.6 43.5 0.00 0.00 0.00 60 1015.1
20260904154617 21 247 24.1 40.2 0.00 0.00 0.00 60 1015.4
20260904153057 22 259 29.0 48.3 0.00 0.00 0.00 58 1015.6
20260904151601 22 249 32.2 45.1 0.00 0.00 0.00 58 1015.6
20260904150050 22 252 29.0 41.8 0.00 0.00 0.00 59 1015.6
20260904144600 22 262 30.6 41.8 0.00 0.00 0.00 59 1015.9
20260904143056 21 242 32.2 46.7 0.00 0.00 0.00 58 1016.1
20260904141617 22 236 33.8 49.9 0.00 0.00 0.00 58 1016.1
20260904140104 22 252 35.4 48.3 0.00 0.00 0.00 58 1015.8
20260904134619 21 254 35.4 49.9 0.00 0.00 0.00 59 1015.9
20260904133109 22 248 43.5 57.9 0.00 0.00 0.00 55 1016.3
20260904131607 23 244 37.0 53.1 0.00 0.00 0.00 53 1016.4
20260904130050 23 244 37.0 53.1 0.00 0.00 0.00 55 1016.7
20260904124548 23 261 37.0 53.1 0.00 0.00 0.00 54 1016.7
20260904123053 22 244 35.4 49.9 0.00 0.00 0.00 55 1016.6
20260904121549 22 259 37.0 53.1 0.00 0.00 0.00 54 1016.8
20260904120059 22 259 41.8 54.7 0.00 0.00 0.00 54 1017.2
20260904114552 21 258 40.2 51.5 0.00 0.00 0.00 56 1017.3
20260904113050 21 254 38.6 48.3 0.00 0.00 0.00 55 1017.3
20260904111601 22 234 37.0 48.3 0.00 0.00 0.00 57 1017.7
20260904110057 21 244 30.6 53.1 0.00 0.00 0.00 58 1017.8
20260904104552 21 256 37.0 53.1 0.00 0.00 0.00 59 1018.2
20260904103053 21 246 33.8 49.9 0.00 0.00 0.00 59 1017.9
20260904101553 21 248 32.2 46.7 0.00 0.00 0.00 60 1018.0
20260904100105 20 264 33.8 48.3 0.00 0.00 0.00 63 1018.0
20260904094552 20 242 29.0 43.5 0.00 0.00 0.00 65 1018.3
20260904093055 19 248 27.4 41.8 0.00 0.00 0.00 66 1018.4
20260904091550 20 256 30.6 45.1 0.00 0.00 0.00 65 1018.4
20260904090057 20 258 29.0 38.6 0.00 0.00 0.00 63 1018.6
20260904084554 20 271 24.1 37.0 0.00 0.00 0.00 65 1019.1
20260904083105 20 254 20.9 33.8 0.00 0.00 0.00 69 1019.1
20260904081550 18 263 14.5 25.7 0.00 0.00 0.00 72 1019.2
20260904080057 17 292 4.8 12.9 0.00 0.00 0.00 72 1019.0
20260904074553 17 317 3.2 22.5 0.00 0.00 0.00 73 1018.9
20260904073053 17 263 16.1 20.9 0.00 0.00 0.00 75 1018.9
20260904071601 16 272 3.2 19.3 0.00 0.00 0.00 76 1018.9
20260904070059 15 290 3.2 12.9 0.00 0.00 0.00 79 1018.6
20260904064614 15 80 3.2 6.4 0.00 0.00 0.00 79 1018.5
20260904063059 14 249 3.2 8.0 0.00 0.00 0.00 80 1018.8
20260904061600 14 18 8.0 12.9 0.00 0.00 0.00 80 1018.5
20260904060057 13 26 3.2 11.3 0.00 0.00 0.00 80 1018.7
20260904054554 13 38 6.4 9.7 0.00 0.00 0.00 81 1018.4
20260904053057 13 61 4.8 8.0 0.00 0.00 0.00 83 1018.4
20260904051550 13 200 3.2 8.0 0.00 0.00 0.00 85 1018.4
20260904050112 12 262 4.8 8.0 0.00 0.00 0.00 86 1018.4
20260904044556 12 43 0.0 9.7 0.00 0.00 0.00 87 1018.4
20260904043102 11 70 3.2 11.3 0.00 0.00 0.00 87 1018.6
20260904041606 11 74 1.6 6.4 0.00 0.00 0.00 88 1018.3
20260904040051 10 0 1.6 6.4 0.00 0.00 0.00 88 1018.3
20260904034611 10 96 4.8 6.4 0.00 0.00 0.00 88 1018.2
20260904033059 10 96 0.0 4.8 0.00 0.00 0.00 88 1018.3
20260904031554 10 0 0.0 6.4 0.00 0.00 0.00 88 1018.3
20260904030052 9 90 4.8 9.7 0.00 0.00 0.00 88 1018.4
20260904024550 8 261 1.6 4.8 0.00 0.08 0.00 88 1018.4
20260904023047 8 0 0.0 6.4 0.00 0.08 0.00 88 1018.4
20260904021553 8 244 0.0 6.4 0.00 0.08 0.00 87 1018.7
20260904020051 9 42 1.6 6.4 0.00 0.08 0.00 88 1018.6
20260904014553 8 0 1.6 6.4 0.00 0.08 0.00 87 1018.8
20260904013054 8 0 0.0 6.4 0.00 0.08 0.00 87 1018.8
20260904011551 8 239 0.0 8.0 0.00 0.08 0.00 87 1019.2
20260904010057 8 0 0.0 6.4 0.00 0.08 0.00 86 1019.2
20260904004554 8 0 1.6 6.4 0.00 0.08 0.00 87 1019.3
20260904003051 8 244 1.6 6.4 0.00 0.08 0.00 87 1019.3
20260904001558 8 0 1.6 4.8 0.00 0.08 0.00 86 1019.5
20260903234552 8 5 6.4 11.3 0.00 0.08 0.00 87 1019.3
20260903233103 8 306 1.6 4.8 0.00 0.08 0.00 86 1019.5
20260903231600 8 13 1.6 6.4 0.00 0.08 0.00 85 1019.6
20260903230105 8 312 1.6 8.0 0.00 0.08 0.00 86 1019.5
20260903224551 9 0 0.0 8.0 0.00 0.08 0.00 86 1019.5
20260903223111 9 299 3.2 6.4 0.00 0.08 0.00 85 1019.5
20260903221552 10 303 1.6 6.4 0.00 0.08 0.00 85 1019.8
20260903214553 10 336 1.6 12.9 0.00 0.08 0.08 84 1019.7
20260903213057 10 346 4.8 8.0 0.00 0.08 0.08 85 1019.5
20260903211601 10 322 3.2 11.3 0.00 0.08 0.08 85 1019.6
20260903210054 10 0 0.0 6.4 0.00 0.08 0.08 83 1019.6
20260903204604 10 234 3.2 6.4 0.00 0.08 0.08 82 1019.5
20260903203056 10 236 3.2 6.4 0.00 0.08 0.08 81 1019.6
20260903201554 11 0 0.0 4.8 0.00 0.08 0.08 81 1019.7
20260903200051 11 271 3.2 6.4 0.00 0.08 0.08 79 1019.7